Regional Weather Roundup
Issued by NWS

Home | Current Version | Previous Version | Text Only | Print | Product List | Glossary Off
Versions: 1 2 3 4 5 6 7 8 9 10 11 12 13 14 15 16 17 18 19 20 21 22 23 24 25 26 27 28 29 30 31 32 33 34 35 36 37 38 39 40 41 42 43 44 45 46 47 48 49 50

000
ASUS43 KDMX 010607
RWRIA

WEATHER ROUNDUP FOR IOWA
NATIONAL WEATHER SERVICE DES MOINES IA
100 AM CDT MON SEP 01 2014

NOTE: "FAIR" INDICATES FEW OR NO CLOUDS BELOW 12,000 FEET WITH NO
SIGNIFICANT WEATHER AND/OR OBSTRUCTIONS TO VISIBILITY.

* - THESE STATIONS ARE NOT NWS STATIONS...THUS NOT UNDER NWS
QUALITY CONTROL.  THEY ALSO DO NOT REPORT WEATHER SUCH
AS PRECIPITATION OR FOG.

IAZ001>003-012>014-020>022-031>034-043>046-010700-
   NORTHWEST IOWA

CITY           SKY/WX    TMP DP  RH WIND       PRES   REMARKS
CARROLL *      CLOUDY    66  66 100 VRB5G12   29.69R
CHEROKEE *       N/A     61  61 100 CALM      29.69R
DENISON *      CLOUDY    64  64 100 CALM      29.68R
LE MARS *        N/A     64  64 100 CALM      29.68S
ORANGE CITY *  MOCLDY    66  64  94 W7        29.68S FOG
SHELDON *      CLOUDY    64  64 100 CALM      29.68R
SIOUX CITY       N/A     64  62  93 NW5       29.67R
6HR MIN TEMP:  64; 6HR MAX TEMP:  70; 6HR PCP: TRACE;

SPENCER        MOCLDY    62  60  93 SE6       29.69R
6HR MIN TEMP:  62; 6HR MAX TEMP:  70; 6HR PCP:  0.19;

STORM LAKE *   CLEAR     61  61 100 CALM      29.70R FOG
$$

IAZ055>058-069>071-079>083-090>094-010700-
   SOUTHWEST IOWA

CITY           SKY/WX    TMP DP  RH WIND       PRES   REMARKS
ATLANTIC *     MOCLDY    68  66  94 S14       29.72R
AUDUBON *      PTCLDY    70  66  88 S5        29.72S
CLARINDA *     CLEAR     68  64  88 S12G18    29.75F
COUNCIL BLFS * CLEAR     68  68 100 S14G23    29.70S
CRESTON *      CLEAR     66  63  88 W13       29.77R
HARLAN  *      PTCLDY    66  66 100 S8        29.73F
LAMONI           N/A     67  64  90 S14G23    29.71F
6HR MIN TEMP:  67; 6HR MAX TEMP:  81; 6HR PCP:  0.37;

RED OAK *      MOCLDY    68  64  88 S14       29.72F
SHENANDOAH *   PTCLDY    70  64  83 S16       29.74F
$$

IAZ047>049-059>061-072>074-084-010700-
   CENTRAL IOWA

CITY           SKY/WX    TMP DP  RH WIND       PRES   REMARKS
AMES           MOCLDY    65  65 100 E12       29.70F
6HR MIN TEMP:  65; 6HR MAX TEMP:  80; 6HR PCP:  2.10;

ANKENY *       MOCLDY    66  64  94 NE7       29.63F
CHARITON *     RAIN      66  64  94 SE7       29.77F
DES MOINES     MOCLDY    74  60  61 S10G28    29.63F THUNDER
6HR MIN TEMP:  67; 6HR MAX TEMP:  82; 6HR PCP:  1.85;

GRINNELL*      RAIN      64  63  94 E10       29.80F
KNOXVILLE *    CLOUDY    66  64  94 SE3       29.76F
MARSHALLTOWN   LGT RAIN  65  64  97 SE21      29.71F
6HR MIN TEMP:  64; 6HR MAX TEMP:  81; 6HR PCP:  2.18;

PELLA *        RAIN      65  64  97 E6        29.78F
PERRY *        MOCLDY    66  64  94 SE6       29.72R
$$

IAZ004>006-015-016-023>025-035-036-010700-
   NORTH CENTRAL IOWA

CITY           SKY/WX    TMP DP  RH WIND       PRES   REMARKS
ALGONA *       PTCLDY    64  64 100 S12G18    29.70S
CLARION *      PTCLDY    64  64 100 SE12G17   29.71S
ESTHERVILLE      N/A     62  61  96 SE7       29.67F
6HR MIN TEMP:  61; 6HR MAX TEMP:  67; 6HR PCP:  0.28;

FORT DODGE *   CLOUDY    64  64 100 SE6       29.71R
MASON CITY       N/A     63  63 100 SE14G21   29.71F
6HR MIN TEMP:  62; 6HR MAX TEMP:  73; 6HR PCP:  0.93;

FOREST CITY *  CLEAR     63  63 100 SE12      29.69F
IOWA FALLS *   MOCLDY    64  63  94 SE10      29.75F
$$

IAZ007>011-017>019-026>030-037>042-050>054-066-010700-
   NORTHEAST IOWA

CITY           SKY/WX    TMP DP  RH WIND       PRES   REMARKS
CEDAR RAPIDS   TSTM      65  65 100 NW13      29.84F FOG
6HR MIN TEMP:  65; 6HR MAX TEMP:  81; 6HR PCP:  0.45;

CHARLES CITY * LGT RAIN  64  63  94 SE12G18   29.72F
CLINTON *        N/A     75  70  83 S12       29.82F
DECORAH *      RAIN      64  63  94 S10       29.80F
DUBUQUE        MOCLDY    69  61  75 NW14      29.84R
6HR MIN TEMP:  69; 6HR MAX TEMP:  77;

MONTICELLO *   LGT RAIN  66  64  94 NW8       29.84F
OELWEIN *      LGT RAIN  64  64 100 SE12G18   29.86S
WATERLOO       RAIN      65  63  93 SE16      29.76F
6HR MIN TEMP:  64; 6HR MAX TEMP:  81; 6HR PCP:  0.48;

$$

IAZ064-065-067-068-078-010700-
   EAST CENTRAL IOWA

CITY           SKY/WX    TMP DP  RH WIND       PRES   REMARKS
DAVENPORT        N/A     76  69  79 S16G23    29.80F
6HR MIN TEMP:  76; 6HR MAX TEMP:  82;

IOWA CITY      TSTM      67  66  97 NW22G32   29.87R FOG
6HR MIN TEMP:  69; 6HR MAX TEMP:  83; 6HR PCP: TRACE;

MT. PLEASANT * MOCLDY    77  67  72 S9        29.80S
MUSCATINE *    PTCLDY    77  70  78 S12       29.79S
QUAD CITIES      N/A     76  70  82 S13       29.80F
6HR MIN TEMP:  74; 6HR MAX TEMP:  82;

$$

IAZ062-063-075>077-085>089-095>099-010700-
   SOUTHEAST IOWA

CITY           SKY/WX    TMP DP  RH WIND       PRES   REMARKS
BURLINGTON     LGT RAIN  76  71  85 S9        29.81S
6HR MIN TEMP:  75; 6HR MAX TEMP:  83; 6HR PCP: TRACE;

FAIRFIELD *    HVY RAIN  66  63  88 NW26G36   29.87R
FORT MADISON * CLEAR     75  72  88 S6        29.82S
KEOKUK *       PTCLDY    77  70  78 S10       29.80F
OSKALOOSA *    LGT RAIN  65  64  97 E7        29.82F
CENTERVILLE *  RAIN      68  68 100 CALM      29.85S
OTTUMWA        LGT RAIN  65  64  97 NE6       29.82F
6HR MIN TEMP:  65; 6HR MAX TEMP:  81; 6HR PCP:  1.35;

WASHINGTON *   HVY RAIN  68  66  94 NW23G39   29.88R
$$

ABBREVIATIONS USED IN REMARKS
   TC - TEMPERATURES IN CELSIUS
  WCI - WIND CHILL INDEX
   HX - HEAT INDEX
  VSB - VISIBILITY
$$




USA.gov is the U.S. government's official web portal to all federal, state and local government web resources and services.